EW9776 Weather Reports


Display with metric or nautical units.
time (UTC)temp
F
wind
direction
speed
MPH
gust
MPH
rain 1hr
in
rain 24hr
in
rain mn
in
humidity
%
barometer
mb
20260903090035 50 187 4.0 7.0 0.00 2.96 0.00 86 1012.0
20260903084534 51 184 4.0 7.0 0.00 2.96 0.00 86 1012.1
20260903083036 50 218 3.0 5.0 0.00 2.96 0.00 87 1012.0
20260903081535 50 211 3.0 6.0 0.00 2.96 0.00 88 1011.8
20260903080035 50 197 3.0 6.0 0.00 2.96 0.00 89 1011.8
20260903074536 49 199 3.0 5.0 0.00 2.96 0.00 90 1011.7
20260903073035 49 201 4.0 7.0 0.00 2.96 0.00 91 1011.4
20260903070035 49 282 1.0 6.0 0.00 2.96 0.00 87 1011.5
20260903064608 51 211 4.0 6.0 0.00 2.96 2.96 85 1011.5
20260903063034 51 217 4.0 7.0 0.00 2.96 2.96 87 1011.6
20260903061535 50 220 3.0 7.0 0.00 2.96 2.96 89 1011.6
20260903060110 51 265 0.0 5.0 0.00 2.96 2.96 84 1011.6
20260903054533 52 214 5.0 13.0 0.00 2.96 2.96 83 1011.5
20260903053035 53 165 6.0 13.0 0.00 2.96 2.96 82 1011.4
20260903050036 53 183 5.0 11.0 0.00 2.96 2.96 82 1011.3
20260903044535 53 213 6.0 12.0 0.00 2.96 2.96 83 1011.1
20260903043034 53 214 8.0 16.0 0.00 2.96 2.96 84 1010.9
20260903041608 53 219 6.0 11.0 0.00 2.96 2.96 86 1010.7
20260903040034 54 222 6.0 15.0 0.00 2.96 2.96 86 1010.4
20260903034532 54 219 7.0 14.0 0.01 2.96 2.96 86 1010.4
20260903033036 55 228 6.0 11.0 0.04 2.96 2.96 91 1010.3
20260903023035 56 83 0.0 5.0 0.14 2.92 2.84 96 1009.9
20260903020035 56 290 2.0 4.0 0.06 2.84 2.78 96 1009.7
20260903014536 56 87 0.0 3.0 0.03 2.78 2.78 96 1009.4
20260903013111 56 142 0.0 2.0 0.04 2.78 2.78 96 1009.4
20260903011535 56 68 0.0 3.0 0.04 2.78 2.78 96 1009.5
20260903010033 56 43 1.0 4.0 2.62 2.78 2.75 95 1009.6
20260903004536 56 26 2.0 4.0 2.59 2.75 2.74 95 1009.6
20260903003037 57 6 3.0 5.0 2.59 2.74 2.74 95 1009.6
20260903001529 57 353 2.0 4.0 2.59 2.74 0.16 95 1009.6
20260903000035 57 357 2.0 4.0 0.01 0.16 0.16 95 1009.5
20260902234609 57 6 2.0 4.0 0.03 0.16 0.15 95 1009.6
20260902233034 57 337 0.0 3.0 0.02 0.15 0.15 95 1009.7
20260902231534 57 299 2.0 4.0 0.02 0.15 0.15 95 1009.8
20260902230035 57 307 2.0 5.0 0.02 0.15 0.13 94 1009.8
20260902220109 57 306 2.0 5.0 0.06 0.13 0.10 92 1009.5
20260902213037 58 322 3.0 6.0 0.06 0.10 0.07 89 1009.5
20260902211536 58 331 2.0 5.0 0.06 0.07 0.07 89 1009.5
20260902210035 58 105 0.0 2.0 0.06 0.07 0.04 88 1009.5
20260902204534 58 90 1.0 4.0 0.03 0.04 0.04 87 1009.7
20260902203144 59 46 1.0 4.0 0.03 0.04 0.01 85 1009.8
20260902201534 59 14 2.0 5.0 0.01 0.01 0.01 84 1009.8
20260902200032 59 3 2.0 6.0 0.01 0.01 0.01 83 1009.7
20260902193037 60 323 0.0 3.0 0.01 0.01 0.00 77 1009.7
20260902191543 61 300 2.0 5.0 0.00 0.00 0.00 73 1009.6
20260902183037 61 288 2.0 5.0 0.00 0.00 0.00 70 1009.6
20260902180035 60 296 2.0 5.0 0.00 0.00 0.00 72 1009.6
20260902174609 60 296 4.0 7.0 0.00 0.00 0.00 72 1009.6
20260902173037 61 302 4.0 7.0 0.00 0.00 0.00 70 1009.6
20260902171535 62 320 4.0 8.0 0.00 0.00 0.00 68 1009.8
20260902170036 63 336 4.0 8.0 0.00 0.00 0.00 67 1009.8
20260902164534 62 333 3.0 6.0 0.00 0.00 0.00 69 1010.0
20260902163035 60 23 1.0 4.0 0.00 0.00 0.00 73 1010.3
20260902160035 59 41 2.0 5.0 0.00 0.00 0.00 75 1010.7
20260902154534 59 28 3.0 6.0 0.00 0.00 0.00 76 1010.7
20260902153035 58 34 3.0 7.0 0.00 0.00 0.00 78 1010.8
20260902151533 56 41 0.0 3.0 0.00 0.00 0.00 81 1010.9
20260902144643 55 113 0.0 2.0 0.00 0.00 0.00 83 1011.2
20260902141610 53 162 1.0 3.0 0.00 0.00 0.00 86 1011.5
20260902140036 51 95 1.0 5.0 0.00 0.00 0.00 89 1011.4
20260902133038 50 106 0.0 2.0 0.00 0.00 0.00 90 1011.5
20260902131538 50 139 1.0 3.0 0.00 0.00 0.00 89 1011.6
20260902130037 50 86 0.0 4.0 0.00 0.00 0.00 89 1011.5
20260902124538 50 81 1.0 4.0 0.00 0.00 0.00 89 1011.6
20260902123038 51 99 1.0 5.0 0.00 0.00 0.00 90 1011.6
20260902121536 51 144 3.0 4.0 0.00 0.00 0.00 89 1011.6
20260902120030 51 159 1.0 4.0 0.00 0.00 0.00 88 1011.7
20260902114609 52 191 2.0 6.0 0.00 0.00 0.00 87 1011.8
20260902113035 52 100 1.0 4.0 0.00 0.00 0.00 87 1011.8
20260902111536 53 46 3.0 6.0 0.00 0.00 0.00 84 1011.8
20260902104535 54 35 1.0 4.0 0.00 0.00 0.00 81 1011.9
20260902103035 56 36 1.0 4.0 0.00 0.00 0.00 76 1012.1
20260902101535 56 275 0.0 6.0 0.00 0.00 0.00 75 1012.2
20260902100033 55 302 2.0 6.0 0.00 0.00 0.00 78 1012.2
20260902094535 56 334 2.0 6.0 0.00 0.00 0.00 78 1012.2
20260902093141 58 18 2.0 6.0 0.00 0.00 0.00 71 1012.4
20260902091534 58 260 4.0 12.0 0.00 0.00 0.00 70 1012.5